TY-1
1 41844U 16066D   22160.84481660  .00008364  00000-0  28756-3 0  9990
2 41844  97.3892 172.8841 0011357 322.8835 159.6149 15.30284241310447
CAS-2T
1 41847U 16066G   22160.62211479  .00000411  00000-0  72567-4 0  9993
2 41847  98.5512 225.3010 0362922 233.1976 123.5403 14.38570442293228
EO-88
1 42017U 17008BX  22160.15232315  .00010391  00000-0  31435-3 0  9996
2 42017  97.2693 226.3877 0003378 264.8244  95.2613 15.34376816295802
CAS-4B
1 42759U 17034B   22160.71365221  .00002521  00000-0  15762-3 0  9994
2 42759  43.0192  15.3617 0010007 246.5349 194.4380 15.11846465275185
CAS-4A
1 42761U 17034D   22160.75131944  .00002158  00000-0  13648-3 0  9991
2 42761  43.0190  13.9443 0010305 249.2781 199.5599 15.11936079275198
NIUSat
1 42766U 17036B   22160.92162115  .00006099  00000-0  23768-3 0  9993
2 42766  97.2026 199.0120 0013179   2.5283 357.6020 15.26234886275659
Aalto 1
1 42775U 17036L   22160.56233086  .00004670  00000-0  18663-3 0  9990
2 42775  97.1981 198.6027 0012180   3.5888 356.5436 15.25526870275578
URSA MAIOR
1 42776U 17036M   22160.54610331  .00005012  00000-0  19688-3 0  9990
2 42776  97.1996 199.3071 0011809   2.7283 357.4018 15.26067949275607
Max Valier Sat
1 42778U 17036P   22160.52505293  .00005942  00000-0  22746-3 0  9991
2 42778  97.2058 201.8987 0010450   5.7995 354.3364 15.26871782275695
Pegasus
1 42784U 17036V   22160.52221157  .00007607  00000-0  27468-3 0  9998
2 42784  97.1997 202.7112 0009716   6.9195 353.2177 15.28717464275802
NUDATSat
1 42787U 17036Y   22160.92531796  .00012434  00000-0  38728-3 0  9993
2 42787  97.2025 207.1368 0007754 354.3797   5.7362 15.33376916275947
SUCHAI 1
1 42788U 17036Z   22160.59265654  .00009073  00000-0  31022-3 0  9999
2 42788  97.2006 204.3886 0008698   2.2844 357.8436 15.30450867275983
SKCUBE
1 42789U 17036AA  22160.52009773  .00008159  00000-0  28553-3 0  9990
2 42789  97.2003 203.7952 0008874   3.6228 356.5076 15.29725380275861
VZLUSAT 1
1 42790U 17036AB  22160.08374167  .00012410  00000-0  38838-3 0  9997
2 42790  97.2031 206.2881 0007252 358.4642   1.6577 15.33230492275968
VENTA 1
1 42791U 17036AC  22160.35342417  .00007061  00000-0  25168-3 0  9999
2 42791  97.2004 203.5289 0008739   5.5978 354.5359 15.29175077275829
Robusta 1B
1 42792U 17036AD  22160.54376194  .00008638  00000-0  29762-3 0  9995
2 42792  97.2000 204.3737 0008416   4.2598 355.8714 15.30218288275912
D-SAT
1 42794U 17036AF  22160.43668817  .00001950  00000-0  16790-3 0  9998
2 42794  97.4510 166.2716 0124850 111.7781 249.6779 14.92585947270286
TechnoSat
1 42829U 17042E   22160.63845269  .00000638  00000-0  68206-4 0  9996
2 42829  97.4220  15.2333 0014997  38.9989 321.2309 14.91845044266929
QIKCOM-1
1 42983U 98067NF  22160.67415127  .00111639  16188-4  26798-3 0  9994
2 42983  51.6283 222.8453 0006579 340.3902  19.6852 15.96305391263696
AO-91
1 43017U 17073E   22160.67122802  .00001617  00000-0  12662-3 0  9997
2 43017  97.6763  55.1829 0247918 213.0624 145.4883 14.81352458245964
PICSAT
1 43132U 18004X   22160.65196822  .00008349  00000-0  27902-3 0  9993
2 43132  97.3721 237.0727 0007872  38.6059 321.5744 15.31236016245215
AO-92
1 43137U 18004AC  22160.17831515  .00006520  00000-0  23223-3 0  9991
2 43137  97.3687 235.4096 0008285  43.1628 317.0260 15.29243710245088
TianYi 2
1 43155U 18008A   22160.90434928  .00004476  00000-0  24075-3 0  9997
2 43155  97.3521 219.5437 0016964 165.5647 281.1889 15.15235843242134
Zhou Enlai
1 43156U 18008B   22160.85806054  .00004437  00000-0  24045-3 0  9999
2 43156  97.3564 219.3723 0014184 165.2030 311.6483 15.15009555242052
TianYi 6
1 43158U 18008D   22160.64403431  .00003894  00000-0  21766-3 0  9993
2 43158  97.3524 217.1617 0013162 166.0528 345.0287 15.13989131241927
S-Net D
1 43186U 18014G   22160.61266742  .00001498  00000-0  13209-3 0  9991
2 43186  97.6588  66.5020 0009587 332.6313  27.4403 14.97880484237742
S-Net B
1 43187U 18014H   22160.67959295  .00001503  00000-0  13255-3 0  9998
2 43187  97.6585  66.5196 0009591 332.3091  27.7620 14.97879120237759
S-Net A
1 43188U 18014J   22160.67986801  .00001515  00000-0  13353-3 0  9994
2 43188  97.6590  66.5826 0009587 332.4809  27.5905 14.97878491237753
S-Net C
1 43189U 18014K   22160.14614123  .00001496  00000-0  13195-3 0  9994
2 43189  97.6585  65.9851 0009628 334.3018  25.7724 14.97874977236223
FMN 1
1 43192U 18015A   22160.89471071  .00017994  00000-0  48262-3 0  9997
2 43192  97.5341 305.8012 0010859  63.2349  87.7988 15.37971433242287
Shaonian Xing
1 43199U 18015H   22160.88357610  .00011021  00000-0  33594-3 0  9992
2 43199  97.5120 301.0649 0013847  73.1660  77.9808 15.34043410242283
SurfSat
1 43614U 18070B   22160.92086765  .00029090  00000-0  43754-3 0  9994
2 43614  93.0312  95.5513 0014142  61.1338 299.1342 15.54637246209891
CP-7 DAVE
1 43615U 18070C   22160.53742869  .00025714  00000-0  40376-3 0  9992
2 43615  93.0301  95.2487 0014516  62.6513 297.6224 15.53457465209808
ELFIN-B
1 43616U 18070D   22160.39926292  .00058262  00000-0  56794-3 0  9996
2 43616  93.0201  96.3165 0012230  64.1476 296.1052 15.65950603210090
ELFIN-A
1 43617U 18070E   22160.09503140  .00069013  00000-0  61869-3 0  9992
2 43617  93.0272  97.5149 0011285  65.0656 295.1785 15.68014487210099
CubeBel-1
1 43666U 18083E   22160.77858553  .00006089  00000-0  26059-3 0  9992
2 43666  97.4204 189.5500 0012950   8.9603 108.8371 15.23104530200312
Changshagaoxin
1 43669U 18083H   22160.82759716  .00005551  00000-0  24916-3 0  9995
2 43669  97.4151 185.5998 0009470  10.8306 163.6904 15.21546061200147
Ten-Koh
1 43677U 18084G   22160.35969653  .00000789  00000-0  85457-4 0  9992
2 43677  97.9632 290.3368 0014552 300.5592  59.4190 14.91077851196475
PO-101
1 43678U 18084H   22160.87194181  .00000837  00000-0  87998-4 0  9992
2 43678  97.9694 294.0478 0008787 316.3824  43.6726 14.92161153196721
IRVINE 01
1 43693U 18088D   22160.39524033  .00024801  00000-0  67678-3 0  9992
2 43693  85.0279 316.3093 0013792 139.2296 220.9989 15.37203798198986
QO-100
1 43700U 18090A   22160.54588736  .00000159  00000-0  00000-0 0  9994
2 43700   0.0181  16.0107 0001354  72.8231  31.3761  1.00271073 12956
Reaktor Hello World
1 43743U 18096AA  22160.18024349  .00008855  00000-0  27233-3 0  9993
2 43743  97.3525 240.0823 0016633  91.4216 268.8932 15.33775866196695
MinXSS-2
1 43758U 18099A   22160.89742217  .00001206  00000-0  10871-3 0  9994
2 43758  97.6247 228.9972 0013679 292.9298  67.0480 14.97323448191977
AO-95
1 43770U 18099N   22160.63301191  .00001043  00000-0  96971-4 0  9997
2 43770  97.6209 227.1861 0012912 305.0478  54.9531 14.96398937191844
RANGE-B
1 43772U 18099Q   22160.43018314  .00001358  00000-0  12286-3 0  9994
2 43772  97.6323 228.6439 0012278 291.2253  68.7658 14.97014256191834
RANGE-A
1 43773U 18099R   22160.95430194  .00000687  00000-0  66218-4 0  9995
2 43773  97.6137 226.3936 0011807 290.5652  69.4302 14.96006975191873
MOVE-II
1 43780U 18099Y   22160.46566743  .00003227  00000-0  28039-3 0  9990
2 43780  97.6244 228.1239 0010933 299.6971  60.3163 14.97652487191869
SNUSat 2
1 43782U 18099AA  22160.61410401  .00001565  00000-0  14241-3 0  9991
2 43782  97.6217 227.6273 0010683 290.0244  69.9827 14.96573228191869
SnugLite
1 43784U 18099AC  22160.65282017  .00001685  00000-0  15210-3 0  9997
2 43784  97.6170 227.3080 0013231 296.3870  63.5993 14.96774636191891
ITASat 1
1 43786U 18099AE  22160.62706709  .00000817  00000-0  76736-4 0  9992
2 43786  97.6239 228.0946 0013431 297.5098  62.4758 14.96553032191886
EAGLET 1
1 43790U 18099AJ  22160.65694977  .00001199  00000-0  10977-3 0  9991
2 43790  97.6225 228.6542 0011679 300.3418  59.6649 14.96731046191627
ESEO
1 43792U 18099AL  22160.65549547  .00000746  00000-0  71177-4 0  9992
2 43792  97.6180 227.8829 0011723 298.1485  61.8551 14.96175557191666
CSIM
1 43793U 18099AM  22160.64305249  .00002331  00000-0  20037-3 0  9991
2 43793  97.6244 229.1791 0011376 288.9945  71.0045 14.98332984191711
Astrocast 0.1
1 43798U 18099AS  22160.58222907  .00002062  00000-0  18133-3 0  9993
2 43798  97.6231 229.0277 0010889 273.7260  86.2717 14.97566174191937
JO-97
1 43803U 18099AX  22160.64741501  .00001568  00000-0  14092-3 0  9993
2 43803  97.6192 227.8674 0013373 294.9841  64.9992 14.97032519191904
Suomi 100
1 43804U 18099AY  22160.66474066  .00002055  00000-0  18359-3 0  9997
2 43804  97.6195 227.8079 0013079 295.7077  64.2794 14.96941804191919
Al Farabi 2
1 43805U 18099AZ  22160.78842391  .00002069  00000-0  18224-3 0  9997
2 43805  97.6195 228.4028 0013347 292.6733  67.3076 14.97487110191951
CHOMPTT
1 43855U 18104G   22160.77806262  .00005394  00000-0  19883-3 0  9991
2 43855  85.0369  56.2678 0012739 266.3748  93.6040 15.27480585193550
ISAT
1 43879U 18111D   22160.51504893  .00001292  00000-0  11439-3 0  9994
2 43879  97.6664  66.2698 0012791 354.0950   6.0119 14.97954092186466
UWE-4
1 43880U 18111E   22160.18525267  .00001204  00000-0  10648-3 0  9991
2 43880  97.6693  66.6412 0012116 355.6607   4.4508 14.98111860188460
Sparrow
1 43881U 18111F   22160.20338482  .00001915  00000-0  16585-3 0  9991
2 43881  97.6694  66.8811 0011628 352.0630   8.0407 14.98252377188479
Lume 1
1 43908U 18111AJ  22160.59842728  .00006425  00000-0  22082-3 0  9996
2 43908  97.1931  48.6534 0020723 101.0986 259.2586 15.30226175192196
FO-99
1 43937U 19003F   22160.52009951  .00008132  00000-0  27644-3 0  9991
2 43937  97.1311 194.1808 0021212 176.7109 183.4276 15.30488065188761
